EW6672 Weather Reports


Display with metric or nautical units.
time (UTC)temp
F
wind
direction
speed
MPH
gust
MPH
rain 1hr
in
rain 24hr
in
rain mn
in
humidity
%
barometer
mb
20191210020025 42 337 2.0 4.0 0.10 0.71 0.14 96 909.4
20191210015025 42 337 1.0 3.0 0.11 0.70 0.13 96 909.5
20191210014025 42 0 1.0 4.0 0.13 0.70 0.13 96 909.6
20191210013023 42 22 2.0 4.0 0.11 0.69 0.11 96 909.6
20191210012025 42 315 1.0 6.0 0.07 0.65 0.07 96 909.7
20191210011026 42 0 1.0 4.0 0.04 0.62 0.04 96 909.7
20191210010025 42 337 2.0 4.0 0.03 0.61 0.03 96 909.6
20191210005025 42 0 2.0 7.0 0.02 0.59 0.02 96 909.7
20191210004025 42 337 2.0 4.0 0.00 0.57 0.00 97 909.6
20191210003025 42 90 2.0 6.0 0.00 0.57 0.00 97 909.7
20191210002026 42 135 1.0 4.0 0.00 0.57 0.00 96 909.8
20191210001024 42 22 2.0 5.0 0.00 0.57 0.00 96 909.7
20191210000026 42 22 2.0 7.0 0.00 0.57 0.00 97 909.8
20191209235027 42 315 1.0 3.0 0.00 0.57 0.00 97 909.9
20191209234027 42 337 1.0 3.0 0.00 0.57 0.00 97 909.9
20191209233026 42 0.0 2.0 0.00 0.57 0.00 97 910.1
20191209232025 42 0.0 2.0 0.00 0.57 0.00 97 910.4
20191209231025 42 0.0 2.0 0.00 0.57 0.00 97 910.6
20191209230024 42 157 1.0 4.0 0.00 0.57 0.00 96 910.7
20191209225025 42 157 2.0 6.0 0.02 0.57 0.57 96 910.8
20191209224018 42 157 1.0 6.0 0.03 0.57 0.57 96 910.9
20191209223025 42 90 2.0 4.0 0.04 0.57 0.57 96 911.0
20191209222025 43 90 1.0 4.0 0.04 0.57 0.57 96 911.1
20191209221025 42 90 1.0 3.0 0.04 0.57 0.57 96 911.2
20191209220025 42 112 1.0 3.0 0.03 0.56 0.56 96 911.1
20191209215025 42 0.0 1.0 0.02 0.55 0.55 96 911.2
20191209214025 42 135 1.0 2.0 0.01 0.53 0.53 96 911.0
20191209213026 42 135 1.0 6.0 0.02 0.52 0.52 96 911.0
20191209212027 42 112 2.0 6.0 0.02 0.52 0.52 96 911.1
20191209211026 43 90 1.0 5.0 0.02 0.52 0.52 96 911.0
20191209210026 43 0 1.0 5.0 0.02 0.52 0.52 96 911.1
20191209205026 43 22 2.0 6.0 0.02 0.52 0.52 97 910.9
20191209204025 43 0 2.0 4.0 0.01 0.51 0.51 97 911.0
20191209203025 43 0.0 3.0 0.00 0.50 0.50 97 911.2
20191209202018 43 135 1.0 4.0 0.00 0.50 0.50 97 911.3
20191209201025 42 112 1.0 3.0 0.00 0.50 0.50 97 911.2
20191209200026 42 0 1.0 5.0 0.02 0.50 0.50 97 911.2
20191209195025 42 0 1.0 3.0 0.03 0.50 0.50 97 911.3
20191209194025 42 0 1.0 3.0 0.06 0.50 0.50 97 911.6
20191209193026 42 0.0 2.0 0.07 0.50 0.50 97 911.4
20191209192025 42 292 2.0 3.0 0.09 0.50 0.50 97 911.4
20191209191018 42 315 1.0 3.0 0.13 0.50 0.50 98 911.5
20191209190026 42 0.0 1.0 0.12 0.48 0.48 97 911.5
20191209185027 42 0.0 1.0 0.12 0.46 0.46 98 911.6
20191209184025 42 0.0 1.0 0.14 0.44 0.44 98 911.5
20191209183026 42 0.0 1.0 0.14 0.42 0.42 97 911.4
20191209182026 42 0.0 2.0 0.15 0.40 0.40 97 911.5
20191209181027 42 0.0 1.0 0.13 0.37 0.37 97 911.7
20191209180028 42 0.0 1.0 0.13 0.35 0.35 97 911.5
20191209175028 43 0.0 1.0 0.14 0.33 0.33 97 912.0
20191209172027 43 0.0 0.0 0.08 0.25 0.25 97 911.7
20191209171020 43 0.0 1.0 0.07 0.23 0.23 97 911.7
20191209170024 43 0.0 2.0 0.07 0.22 0.22 97 911.6
20191209165027 43 315 1.0 2.0 0.06 0.19 0.19 97 911.5
20191209164027 43 0.0 2.0 0.06 0.18 0.18 97 911.5
20191209163030 43 0.0 1.0 0.07 0.17 0.17 96 911.4
20191209162027 43 0.0 0.0 0.06 0.16 0.16 96 911.4
20191209161027 43 0.0 1.0 0.06 0.15 0.15 96 911.3
20191209160027 43 0.0 2.0 0.05 0.14 0.14 96 911.3
20191209155026 43 0.0 2.0 0.05 0.13 0.13 96 911.4
20191209154026 43 0.0 2.0 0.03 0.11 0.11 95 911.5
20191209153028 44 0 1.0 3.0 0.02 0.10 0.10 95 911.4
20191209152026 44 337 1.0 2.0 0.02 0.10 0.10 94 911.4
20191209151027 44 0.0 2.0 0.01 0.09 0.09 93 911.8
20191209150027 45 0.0 2.0 0.00 0.08 0.08 92 911.8
20191209145027 45 135 1.0 9.0 0.00 0.07 0.07 91 911.6
20191209144028 45 135 2.0 8.0 0.00 0.07 0.07 92 911.6
20191209143027 45 157 3.0 8.0 0.02 0.07 0.07 92 911.7
20191209142027 44 135 1.0 4.0 0.03 0.07 0.07 94 911.7
20191209141026 45 112 1.0 6.0 0.05 0.07 0.07 94 911.9
20191209140027 45 90 1.0 5.0 0.07 0.07 0.07 95 912.0
20191209135027 44 0 1.0 2.0 0.07 0.07 0.07 94 912.1
20191209134027 44 0.0 1.0 0.06 0.07 0.07 94 912.1
20191209133027 45 0.0 1.0 0.04 0.05 0.05 93 912.3
20191209132027 45 22 1.0 4.0 0.03 0.03 0.03 91 912.3
20191209131026 46 67 1.0 3.0 0.01 0.02 0.02 89 912.3
20191209130026 47 67 2.0 4.0 0.00 0.00 0.00 86 912.3
20191209125027 48 0.0 3.0 0.00 0.00 0.00 82 912.6
20191209124025 48 0.0 2.0 0.00 0.00 0.00 82 912.6
20191209123028 47 292 1.0 5.0 0.00 0.00 0.00 83 912.7
20191209122024 47 270 1.0 2.0 0.00 0.00 0.00 85 912.8
20191209121027 47 0.0 2.0 0.00 0.00 0.00 84 913.0
20191209120026 47 135 1.0 3.0 0.00 0.00 0.00 82 913.1
20191209115026 47 67 1.0 5.0 0.00 0.00 0.00 85 913.4
20191209114026 48 225 1.0 5.0 0.00 0.00 0.00 86 913.5
20191209113023 47 157 1.0 4.0 0.00 0.00 0.00 87 913.7
20191209112025 47 0.0 2.0 0.00 0.00 0.00 89 914.0
20191209111026 47 0.0 2.0 0.00 0.00 0.00 90 914.1
20191209110026 47 0.0 2.0 0.00 0.00 0.00 91 914.2
20191209105023 47 0.0 2.0 0.00 0.00 0.00 93 914.3
20191209104030 46 0.0 2.0 0.00 0.00 0.00 95 914.5
20191209103028 46 0.0 1.0 0.00 0.00 0.00 98 914.6
20191209102028 45 0.0 1.0 0.00 0.00 0.00 98 914.7
20191209101026 45 0.0 3.0 0.00 0.00 0.00 99 914.9
20191209100024 44 0.0 1.0 0.00 0.00 0.00 99 915.1
20191209095027 44 0.0 1.0 0.00 0.00 0.00 99 915.2
20191209094028 43 0.0 2.0 0.00 0.00 0.00 99 915.4
20191209093026 42 0.0 1.0 0.00 0.00 0.00 99 915.5
20191209092028 40 0.0 1.0 0.00 0.00 0.00 99 915.8
20191209091023 39 0.0 0.0 0.00 0.00 0.00 99 915.8
20191209090024 39 0.0 1.0 0.00 0.00 0.00 99 915.9
20191209085022 39 0.0 0.0 0.00 0.00 0.00 99 915.8
20191209084022 38 0.0 1.0 0.00 0.00 0.00 99 915.7
20191209083022 37 0.0 1.0 0.00 0.00 0.00 99 915.8
20191209082022 37 0.0 1.0 0.00 0.00 0.00 99 915.8
20191209081022 36 0.0 1.0 0.00 0.00 0.00 99 915.9
20191209080020 36 0.0 2.0 0.00 0.00 0.00 99 915.9
20191209075022 36 0.0 2.0 0.00 0.00 0.00 99 915.9
20191209074022 35 0.0 1.0 0.00 0.00 0.00 99 915.8
20191209073022 35 0.0 0.0 0.00 0.00 0.00 99 915.9
20191209072022 35 0.0 0.0 0.00 0.00 0.00 99 915.8
20191209071023 34 0.0 0.0 0.00 0.00 0.00 98 915.9
20191209070022 34 0.0 0.0 0.00 0.00 0.00 98 916.1
20191209065022 34 0.0 0.0 0.00 0.00 0.00 98 916.1
20191209064022 34 0.0 0.0 0.00 0.00 0.00 98 916.1
20191209063022 34 0.0 1.0 0.00 0.00 0.00 98 916.1
20191209062022 33 0.0 0.0 0.00 0.00 0.00 98 916.0
20191209061022 33 0.0 0.0 0.00 0.00 0.00 98 916.0
20191209060022 33 0.0 0.0 0.00 0.00 0.00 98 916.1
20191209055022 33 0.0 1.0 0.00 0.00 0.00 98 916.0
20191209054022 33 0.0 0.0 0.00 0.00 0.00 98 916.1
20191209053023 33 0.0 0.0 0.00 0.00 0.00 98 916.3
20191209052023 33 0.0 0.0 0.00 0.00 0.00 98 916.4
20191209051022 32 0.0 0.0 0.00 0.00 0.00 98 916.5
20191209050022 32 0.0 0.0 0.00 0.00 0.00 98 916.6
20191209045022 32 0.0 0.0 0.00 0.00 0.00 98 916.5
20191209044022 32 0.0 0.0 0.00 0.00 0.00 98 916.7
20191209043022 32 0.0 0.0 0.00 0.00 0.00 98 916.7
20191209042025 32 0.0 0.0 0.00 0.00 0.00 98 916.7
20191209041023 32 0.0 0.0 0.00 0.00 0.00 98 916.9
20191209040024 32 0.0 0.0 0.00 0.00 0.00 98 916.9
20191209035022 31 0.0 0.0 0.00 0.00 0.00 98 917.1
20191209034023 31 0.0 0.0 0.00 0.00 0.00 98 917.2
20191209033023 31 0.0 0.0 0.00 0.00 0.00 98 917.2
20191209032022 31 0.0 0.0 0.00 0.00 0.00 98 917.3
20191209031022 31 0.0 0.0 0.00 0.00 0.00 98 917.5
20191209030022 31 0.0 0.0 0.00 0.00 0.00 98 917.5
20191209025023 30 0.0 0.0 0.00 0.00 0.00 98 917.6
20191209024022 30 0.0 1.0 0.00 0.00 0.00 98 917.7
20191209023022 30 0.0 0.0 0.00 0.00 0.00 98 917.7
20191209022022 29 0.0 0.0 0.00 0.00 0.00 98 917.9
20191209021022 29 0.0 0.0 0.00 0.00 0.00 98 918.0